sat.trackr.live / text

‹ back to catalog

SES-2

NORAD 37809 · 2011-049A

PAYLOAD ACTIVE UNKNOWN

§ Identity

Operator
Country
SES
Launch date
2011-09-21
Launch site
FRGUI
Launch vehicle
Mass (kg)
RCS (m²)
9.35

Purposes: comms

External: N2YO · Heavens-Above · Gunter

§ Orbital elements

Epoch: 2026-05-25T03:26:38.623776Z

Period
1,436.14 min
Inclination
0.0195°
Eccentricity
0.0002987
Mean motion
1.00268430 rev/d
Perigee alt
35,774.9 km
Apogee alt
35,800.1 km
Semi-major
42,165.7 km
B*
0.0000e+0
RAAN
69.8981°
Arg perigee
354.6720°
Mean anomaly
142.8326°
Rev number
5,373

§ Raw data

SES-21 37809U 11049A   26145.14350259  .00000000  00000+0  00000+0 0  99972 37809   0.0195  69.8981 0002987 354.6720 142.8326  1.00268430 53736

JSON: /api/v1/satellites/37809 · /tle

For live sub-satellite position, see the globe view (requires WebGL).

§ Visibility from observer

Set your observer location to see the next 7 days of passes ≥ 10°. The values pass through the URL so the page stays shareable.

No JS? Fill the form by hand. The geolocation button needs JavaScript.